Notices

What's New in latest Release from April 7th, 2021:

- Updated Glossary, including Speed of Maximum Gust, and Total Hourly Precipitation

- Updated national and regional climate services offices contacts and prices information

- Addition of station inventory lists for 1981-2010, 1971-2000, and 1961-1990 Normals.

If you haven't already, please take our survey and provide feedback about our website: https://eccc.sondage-survey.ca/f/LanguageSelection.aspx?s=442ca660-fcf1-47c0-95a9-59707d6fd709

Hourly Data Report for July 22, 2020

OTTAWA INTL A
ONTARIO
Current Station Operator: NAVCAN

45°19'00.000" N
75°40'00.000" W
114.90 m
6106001
71628
YOW

Download Data

Hourly Data (July 2020)
Hourly Data Report for July 22, 2020
TIME
LST
Temp Definition
°C
Dew Point Definition
°C
Rel Hum Definition
%
Precip. Amount Definition
mm

Wind Dir Definition
10's deg

Wind Spd Definition
km/h
Visibility Definition
km
Stn Press Definition
kPa
Hmdx Definition


Wind Chill Definition


Weather Definition


00:00 17.1 12.6 75   9 10 24.1 100.41     LegendNANA
01:00 17.1 13.0 76   6 6 24.1 100.36     Mostly Cloudy
02:00 16.4 13.2 81   4 14 24.1 100.35     LegendNANA
03:00 15.9 13.1 83   7 8 24.1 100.35     LegendNANA
04:00 15.9 13.3 85   8 8 24.1 100.41     Mostly Cloudy
05:00 15.8 13.7 87   5 10 24.1 100.40     LegendNANA
06:00 16.9 13.6 81   7 9 24.1 100.40     LegendNANA
07:00 18.0 13.9 77   6 11 24.1 100.39     Mostly Cloudy
08:00 20.2 14.4 69   8 12 24.1 100.39     LegendNANA
09:00 22.2 14.9 63   7 14 24.1 100.36 26   LegendNANA
10:00 23.3 15.2 60   7 14 24.1 100.34 27   Mostly Cloudy
11:00 25.4 16.0 56   9 15 24.1 100.30 30   LegendNANA
12:00 25.0 15.9 57   7 19 24.1 100.22 30   LegendNANA
13:00 24.8 14.5 52   12 17 24.1 100.18 28   Cloudy
14:00 23.8 15.7 60   14 10 24.1 100.19 28   LegendNANA
15:00 19.0 17.6 92   14 8 12.9 100.20     Rain
16:00 19.7 16.8 84   9 15 24.1 100.13     Cloudy
17:00 19.6 16.7 83   7 15 24.1 100.05     LegendNANA
18:00 19.0 17.1 89   8 7 24.1 100.01     Rain
19:00 18.8 17.1 90   8 9 16.1 99.97     Rain
20:00 18.4 17.4 94   3 8 9.7 100.01     Rain,Fog
21:00 18.1 17.5 97   4 16 16.1 99.98     Rain
22:00 17.9 17.5 97   3 12 16.1 100.00     Cloudy
23:00 18.1 17.6 97   4 12 16.1 100.01     LegendNANA

Notes on Data Quality.

Legend

  • E = Estimated
  • M = Missing
  • NA = Not Available*
  • [empty] = Indicates an unobserved value
Date modified: